Location: Balsareny
(41.8670°N, 1.8830°E)
Time: 10:44:45
(UTC+01:00)

Envisat - Pass Details

Date: 01 December 2021
Orbit: 764 x 766 km, 98.2° (Epoch: 15 January)

Event Time Altitude Azimuth Distance (km) Brightness Sun altitude
Rises 05:04:45 0° 24° (NNE) 3,240 6.5 -32.1°
Reaches altitude 10° 05:07:22 10° 35° (NE) 2,309 5.8 -31.6°
Maximum altitude 05:11:46 29° 95° (E) 1,378 4.8 -30.8°
Drops below altitude 10° 05:16:08 10° 155° (SSE) 2,293 5.8 -30.0°
Sets 05:18:42 0° 166° (SSE) 3,214 6.4 -29.5°
